Weather in Korta

Russia / Mari El Republic     56°35′58″N   47°58′37″E
temp.,
°C
wind,
m/s
gust,
m/s
humid.,
%
clouds,
%
prec.,
mm/h
press.,
hPa
HPBL,
m
1 march, mon
mon100:00−18nnw239892 0.0 101830
03:00−19nnw239982 0.1 101924
06:00−21n229954 0.0 102020
09:00−17wnw129428 0.0 1021147
12:00−11w238984 0.0 1021406
15:00−9wsw359393 0.1 1019429
18:00−11sw3897100 0.1 1016247
21:00−9ssw41195100 0.1 1013371
2 march, tue
tue200:00−5sw51195100 1.9 1009645
03:00−3sw61396100 3.9 1005671
06:00−1sw51197100 1.8 1001617
09:000w51199100 2.8 999661
12:000w51099100 0.6 997766
15:000wnw51099100 0.9 997857
18:00−1wnw41189100 0.3 998672
21:00−4wnw4119194 0.3 999409
3 march, wed
wed300:00−3wnw499295 0.1 999522
03:00−5wnw4109597 0.1 1000430
06:00−6wnw4119498 0.1 1000471
09:00−6nw5109399 0.1 1002569
12:00−4nw5989100 0.3 1003762
15:00−5nw5889100 0.4 1005880
18:00−6wnw3994100 0.1 1005632
21:00−7w31093100 0.3 1006515
4 march, thu
thu400:00−9wsw399689 0.2 1004298
03:00−7wsw399695 0.3 1003338
06:00−7wsw3896100 0.2 1002248
09:00−5sw4995100 0.3 1001488
12:00−2ssw61195100 0.3 997828
15:00−2sw61296100 1.9 994930
18:00−1wsw61296100 1.4 991940
21:00−1wsw51293100 1.6 991799
5 march, fri
fri500:00−2w41089100 0.5 989725
03:00−7w6138799 0.5 992834
06:00−9wnw61389100 0.1 997877
09:00−8wnw51090100 0.1 1002648
12:00−6wnw478798 0.1 1006910
15:00−6wnw478497 0.1 1008905
18:00−10w359363 0.0 101087
21:00−11w389681 0.0 1013196